"Period start","avg(HW err(1)/warn(2) (#))","avg(Visibility (m))","avg(Weather code (#))","avg(Precip intensity (mm/h))","min(HW err(1)/warn(2) (#))","max(HW err(1)/warn(2) (#))","std(HW err(1)/warn(2) (#))","med(HW err(1)/warn(2) (#))","min(Visibility (m))","max(Visibility (m))","std(Visibility (m))","med(Visibility (m))","min(Weather code (#))","max(Weather code (#))","std(Weather code (#))","med(Weather code (#))","min(Precip intensity (mm/h))","max(Precip intensity (mm/h))","std(Precip intensity (mm/h))","med(Precip intensity (mm/h))"
2017-04-29 00:00:00,2,6870,10,0.00,2,2,0,2,4465,9704,1476,6706,10,10,0,10,0.00,0.00,0.00,0.00
2017-04-29 00:10:00,2,7063,10,0.00,2,2,0,2,5412,8852,1032,7052,10,10,0,10,0.00,0.00,0.00,0.00
2017-04-29 00:20:00,2,7276,10,0.00,2,2,0,2,6221,9144,840,6982,10,10,0,10,0.00,0.00,0.00,0.00
2017-04-29 00:30:00,2,7945,10,0.00,2,2,0,2,6393,9922,1001,8048,10,10,0,10,0.00,0.00,0.00,0.00
2017-04-29 00:40:00,2,10057,10,0.00,2,2,0,2,7984,13706,1738,9128,10,10,0,10,0.00,0.00,0.00,0.00
2017-04-29 00:50:00,2,8810,10,0.00,2,2,0,2,6919,11224,1209,8644,10,10,0,10,0.00,0.00,0.00,0.00
2017-04-29 01:00:00,2,8700,10,0.00,2,2,0,2,7595,10052,898,8605,10,10,0,10,0.00,0.00,0.00,0.00
2017-04-29 01:10:00,2,9834,10,0.00,2,2,0,2,7312,13458,2072,9212,10,10,0,10,0.00,0.00,0.00,0.00
2017-04-29 01:20:00,2,8245,10,0.00,2,2,0,2,7189,10782,1003,8016,10,10,0,10,0.00,0.00,0.00,0.00
2017-04-29 01:30:00,2,9357,10,0.00,2,2,0,2,6688,10876,1175,9674,10,10,0,10,0.00,0.00,0.00,0.00
2017-04-29 01:40:00,2,11817,5,0.00,2,2,0,2,9442,17876,2378,10918,0,10,5,5,0.00,0.00,0.00,0.00
2017-04-29 01:50:00,2,12229,0,0.00,2,2,0,2,9889,21115,3272,10734,0,0,0,0,0.00,0.00,0.00,0.00
2017-04-29 02:00:00,2,13232,21,0.00,2,2,0,2,8927,21132,3762,12282,0,71,33,0,0.00,0.00,0.00,0.00
2017-04-29 02:10:00,2,12288,36,0.05,2,2,0,2,8967,19134,3109,11773,0,71,36,36,0.00,0.20,0.07,0.00
2017-04-29 02:20:00,2,9708,71,0.13,2,2,0,2,7317,11977,1632,9768,71,71,0,71,0.00,0.35,0.10,0.12
2017-04-29 02:30:00,2,8707,71,0.24,2,2,0,2,5846,17718,3339,7960,71,71,0,71,0.00,1.00,0.30,0.10
2017-04-29 02:40:00,2,9598,71,0.45,2,2,0,2,6076,16748,2915,8910,71,71,0,71,0.05,1.25,0.31,0.38
2017-04-29 02:50:00,2,6376,71,0.55,2,2,0,2,5203,7437,732,6355,71,71,0,71,0.05,1.15,0.36,0.45
2017-04-29 03:00:00,2,7397,71,0.23,2,2,0,2,5985,9930,1298,7192,71,71,0,71,0.05,0.45,0.12,0.25
2017-04-29 03:10:00,2,6139,71,0.60,2,2,0,2,4378,7511,1006,5834,71,71,0,71,0.05,1.45,0.43,0.60
2017-04-29 03:20:00,2,9030,71,0.09,2,2,0,2,6977,11159,1237,8902,71,71,0,71,0.00,0.20,0.06,0.08
2017-04-29 03:30:00,2,9133,71,0.13,2,2,0,2,6545,11932,1697,9077,71,71,0,71,0.00,0.45,0.12,0.10
2017-04-29 03:40:00,2,12192,71,0.17,2,2,0,2,8607,17630,2843,11988,71,71,0,71,0.00,0.55,0.16,0.15
2017-04-29 03:50:00,2,11555,71,0.18,2,2,0,2,7226,14889,2475,12432,71,71,0,71,0.00,0.55,0.18,0.10
2017-04-29 04:00:00,2,17418,71,0.11,2,2,0,2,7588,26970,6080,15736,71,71,0,71,0.00,0.25,0.10,0.12
2017-04-29 04:10:00,2,16285,71,0.09,2,2,0,2,8875,20965,3702,16766,71,71,0,71,0.00,0.25,0.08,0.08
2017-04-29 04:20:00,2,14556,71,0.42,2,2,0,2,8573,19670,3443,14328,71,71,0,71,0.00,1.25,0.41,0.25
2017-04-29 04:30:00,2,14768,71,0.36,2,2,0,2,9232,27326,5096,13754,71,71,0,71,0.05,0.70,0.21,0.38
2017-04-29 04:40:00,2,14657,71,0.61,2,2,0,2,11063,23510,3697,12644,71,71,0,71,0.20,1.65,0.48,0.38
2017-04-29 04:50:00,2,16357,71,0.39,2,2,0,2,10514,22057,3940,14944,71,71,0,71,0.10,0.80,0.25,0.25
2017-04-29 05:00:00,2,15883,71,0.15,2,2,0,2,8135,27899,6278,14928,71,71,0,71,0.00,0.55,0.18,0.10
2017-04-29 05:10:00,2,16523,71,0.04,2,2,0,2,9815,24899,4631,15784,71,71,0,71,0.00,0.15,0.04,0.05
2017-04-29 05:20:00,2,19559,73,0.04,2,2,0,2,9853,47326,9898,17248,71,77,3,71,0.00,0.15,0.05,0.05
2017-04-29 05:30:00,2,12056,71,0.20,2,2,0,2,7631,17753,3018,11326,71,71,0,71,0.05,0.50,0.14,0.12
2017-04-29 05:40:00,2,14658,71,0.23,2,2,0,2,10071,32672,6167,12528,71,71,0,71,0.05,0.50,0.13,0.20
2017-04-29 05:50:00,2,18676,71,0.18,2,2,0,2,11866,25097,4397,20170,71,71,0,71,0.05,0.45,0.13,0.17
2017-04-29 06:00:00,2,22618,71,0.09,2,2,0,2,14295,35347,6679,19316,71,71,0,71,0.00,0.30,0.10,0.05
2017-04-29 06:10:00,2,16410,73,0.06,2,2,0,2,9098,23170,3936,17734,71,77,3,71,0.00,0.20,0.07,0.03
2017-04-29 06:20:00,2,14959,71,0.15,2,2,0,2,7123,25614,5291,14657,71,71,0,71,0.00,0.50,0.17,0.08
2017-04-29 06:30:00,2,12256,72,0.30,2,2,0,2,8627,25690,4911,10382,71,77,2,71,0.00,0.90,0.28,0.20
2017-04-29 06:40:00,2,10283,71,0.31,2,2,0,2,6340,15567,3537,8818,71,71,0,71,0.00,0.85,0.25,0.28
2017-04-29 06:50:00,2,7950,71,0.46,2,2,0,2,6098,10050,1445,8068,71,71,0,71,0.15,0.80,0.20,0.42
2017-04-29 07:00:00,2,7797,71,0.53,2,2,0,2,5624,10229,1219,7710,71,71,0,71,0.30,0.70,0.13,0.57
2017-04-29 07:10:00,2,7468,71,0.81,2,2,0,2,6053,9617,945,7222,71,71,0,71,0.45,1.60,0.38,0.65
2017-04-29 07:20:00,2,8243,71,0.77,2,2,0,2,5625,12237,1830,8100,71,71,0,71,0.30,1.45,0.40,0.80
2017-04-29 07:30:00,2,10209,71,0.54,2,2,0,2,7691,12390,1619,9920,71,71,0,71,0.25,1.15,0.28,0.40
2017-04-29 07:40:00,2,8762,71,0.67,2,2,0,2,6373,10729,1276,8501,71,71,0,71,0.25,1.85,0.45,0.52
2017-04-29 07:50:00,2,7889,71,0.69,2,2,0,2,6655,8842,704,8136,71,71,0,71,0.30,1.00,0.27,0.75
2017-04-29 08:00:00,2,5409,71,1.48,2,2,0,2,3534,7795,1362,5288,71,71,0,71,0.55,3.30,0.76,1.35
2017-04-29 08:10:00,2,6074,71,1.18,2,2,0,2,4794,8936,1098,5876,71,71,0,71,0.70,1.50,0.26,1.23
2017-04-29 08:20:00,2,6998,71,0.89,2,2,0,2,5278,8692,1143,7236,71,71,0,71,0.30,1.40,0.37,0.97
2017-04-29 08:30:00,2,9885,71,0.48,2,2,0,2,7613,13901,1808,9942,71,71,0,71,0.20,0.90,0.20,0.45
2017-04-29 08:40:00,2,10822,71,0.54,2,2,0,2,8444,14698,2137,9786,71,71,0,71,0.20,0.85,0.18,0.57
2017-04-29 08:50:00,2,10115,71,0.45,2,2,0,2,6565,15050,2161,9500,71,71,0,71,0.10,1.05,0.29,0.40
2017-04-29 09:00:00,2,9142,71,0.66,2,2,0,2,5719,12012,2097,9042,71,71,0,71,0.10,1.20,0.30,0.60
2017-04-29 09:10:00,2,10876,71,0.21,2,2,0,2,9411,13171,1008,10925,71,71,0,71,0.10,0.35,0.07,0.20
2017-04-29 09:20:00,2,9967,71,0.40,2,2,0,2,7406,12435,1686,9258,71,71,0,71,0.10,1.00,0.27,0.30
2017-04-29 09:30:00,2,8975,71,0.35,2,2,0,2,7475,11489,1245,8707,71,71,0,71,0.15,0.60,0.14,0.35
2017-04-29 09:40:00,2,9607,71,0.42,2,2,0,2,7542,11501,1237,9546,71,71,0,71,0.20,0.70,0.14,0.42
2017-04-29 09:50:00,2,9398,71,0.35,2,2,0,2,8294,11137,956,9168,71,71,0,71,0.15,0.90,0.22,0.28
2017-04-29 10:00:00,2,11498,71,0.20,2,2,0,2,8750,15023,1909,11567,71,71,0,71,0.05,0.55,0.16,0.17
2017-04-29 10:10:00,2,13150,72,0.07,2,2,0,2,10891,19577,2520,12401,71,77,2,71,0.00,0.15,0.04,0.08
2017-04-29 10:20:00,2,13101,74,0.05,2,2,0,2,11500,16278,1521,12478,71,78,3,71,0.00,0.15,0.04,0.05
2017-04-29 10:30:00,2,10766,75,0.17,2,2,0,2,7582,12500,1539,11240,71,78,3,77,0.00,1.00,0.28,0.08
2017-04-29 10:40:00,2,9034,71,0.24,2,2,0,2,7577,11205,1005,9046,71,71,0,71,0.10,0.40,0.10,0.28
2017-04-29 10:50:00,2,8890,71,0.29,2,2,0,2,5894,10326,1169,9030,71,71,0,71,0.10,0.75,0.21,0.23
2017-04-29 11:00:00,2,5681,71,0.54,2,2,0,2,4249,6670,776,5794,71,71,0,71,0.25,1.15,0.25,0.47
2017-04-29 11:10:00,2,6130,71,0.67,2,2,0,2,4811,7412,914,6098,71,71,0,71,0.20,0.95,0.21,0.73
2017-04-29 11:20:00,2,5133,71,0.90,2,2,0,2,3995,5791,552,5144,71,71,0,71,0.60,1.15,0.15,0.88
2017-04-29 11:30:00,2,8419,71,0.47,2,2,0,2,6916,9623,907,8519,71,71,0,71,0.15,0.85,0.22,0.45
2017-04-29 11:40:00,2,7858,71,0.69,2,2,0,2,6446,11188,1370,7610,71,71,0,71,0.35,1.10,0.23,0.65
2017-04-29 11:50:00,2,7245,71,0.78,2,2,0,2,5008,10021,1239,7174,71,71,0,71,0.30,1.25,0.31,0.80
2017-04-29 12:00:00,2,3182,71,2.58,2,2,0,2,2660,4177,479,3046,71,71,0,71,1.30,3.70,0.79,2.50
2017-04-29 12:10:00,2,3930,71,1.97,2,2,0,2,3189,4907,600,3996,71,71,0,71,1.15,2.80,0.55,1.95
2017-04-29 12:20:00,2,4512,71,1.84,2,2,0,2,3180,7864,1251,4362,71,71,0,71,0.80,3.15,0.61,1.80
2017-04-29 12:30:00,2,4067,71,1.38,2,2,0,2,3053,4745,553,4250,71,71,0,71,0.80,2.25,0.48,1.35
2017-04-29 12:40:00,2,3288,71,2.04,2,2,0,2,2704,4157,397,3269,71,71,0,71,1.65,2.45,0.23,2.00
2017-04-29 12:50:00,2,3863,71,1.64,2,2,0,2,3263,4294,286,3908,71,71,0,71,1.20,2.30,0.38,1.50
2017-04-29 13:00:00,2,4308,71,1.37,2,2,0,2,3843,5470,525,4084,71,71,0,71,0.60,1.90,0.37,1.50
2017-04-29 13:10:00,2,4396,71,1.21,2,2,0,2,3589,5341,535,4180,71,71,0,71,0.85,1.75,0.30,1.15
2017-04-29 13:20:00,2,3649,71,1.85,2,2,0,2,3034,4298,377,3613,71,71,0,71,1.05,2.50,0.43,1.90
2017-04-29 13:30:00,2,5437,71,1.16,2,2,0,2,4132,6866,710,5436,71,71,0,71,0.70,1.85,0.41,0.97
2017-04-29 13:40:00,2,4896,71,1.00,2,2,0,2,3815,6234,773,4857,71,71,0,71,0.40,1.45,0.26,0.97
2017-04-29 13:50:00,2,4199,71,0.99,2,2,0,2,3708,5437,506,4040,71,71,0,71,0.65,1.45,0.24,0.92
2017-04-29 14:00:00,2,4283,71,0.47,2,2,0,2,2823,5950,980,4500,71,71,0,71,0.25,0.65,0.12,0.47
2017-04-29 14:10:00,2,6158,71,0.42,2,2,0,2,4018,11223,2098,5620,71,71,0,71,0.05,1.35,0.40,0.28
2017-04-29 14:20:00,2,2979,71,2.15,2,2,0,2,1947,4120,700,2816,71,71,0,71,0.80,4.05,0.99,1.82
2017-04-29 14:30:00,2,2144,71,3.91,2,2,0,2,1775,2623,260,2140,71,71,0,71,2.50,4.65,0.67,4.15
2017-04-29 14:40:00,2,2394,71,2.71,2,2,0,2,1889,3250,458,2128,71,71,0,71,1.70,3.65,0.70,2.83
2017-04-29 14:50:00,2,3253,71,1.45,2,2,0,2,2915,3867,307,3192,71,71,0,71,1.05,1.80,0.22,1.45
2017-04-29 15:00:00,2,2761,71,1.96,2,2,0,2,2398,3262,263,2718,71,71,0,71,0.90,3.05,0.58,1.95
2017-04-29 15:10:00,2,2915,71,1.97,2,2,0,2,2405,4010,416,2850,71,71,0,71,1.35,2.70,0.44,1.93
2017-04-29 15:20:00,2,3797,71,1.56,2,2,0,2,2840,4731,527,3865,71,71,0,71,0.80,2.65,0.49,1.45
2017-04-29 15:30:00,2,5098,71,1.18,2,2,0,2,4370,5792,406,5055,71,71,0,71,0.50,2.00,0.41,1.20
2017-04-29 15:40:00,2,4036,71,1.52,2,2,0,2,2875,5634,709,4026,71,71,0,71,0.75,2.35,0.47,1.52
2017-04-29 15:50:00,2,3539,71,1.92,2,2,0,2,2847,4285,434,3546,71,71,0,71,1.30,2.95,0.49,1.90
2017-04-29 16:00:00,2,3631,71,2.01,2,2,0,2,2723,4842,551,3666,71,71,0,71,1.75,2.40,0.20,2.05
2017-04-29 16:10:00,2,4700,71,1.59,2,2,0,2,3771,6295,846,4346,71,71,0,71,0.85,2.25,0.45,1.60
2017-04-29 16:20:00,2,4546,71,1.76,2,2,0,2,3453,5978,885,4236,71,71,0,71,1.00,2.90,0.67,1.60
2017-04-29 16:30:00,2,3547,71,2.21,2,2,0,2,2735,4751,662,3608,71,71,0,71,1.20,3.40,0.66,2.28
2017-04-29 16:40:00,2,3050,71,2.53,2,2,0,2,2564,4134,452,2908,71,71,0,71,1.45,3.10,0.45,2.58
2017-04-29 16:50:00,2,4168,71,1.92,2,2,0,2,3242,5263,615,4190,71,71,0,71,1.15,3.50,0.62,1.88
2017-04-29 17:00:00,2,4596,71,1.74,2,2,0,2,3413,7238,1110,4470,71,71,0,71,0.95,2.85,0.61,1.50
2017-04-29 17:10:00,2,7433,71,0.82,2,2,0,2,4549,13228,2443,6960,71,71,0,71,0.25,1.70,0.41,0.75
2017-04-29 17:20:00,2,8454,71,0.79,2,2,0,2,5663,11888,1918,8349,71,71,0,71,0.30,1.35,0.35,0.70
2017-04-29 17:30:00,2,7225,71,0.95,2,2,0,2,5435,8717,832,7284,71,71,0,71,0.60,1.45,0.31,0.88
2017-04-29 17:40:00,2,6800,71,0.77,2,2,0,2,4827,10324,1677,6396,71,71,0,71,0.40,1.25,0.30,0.78
2017-04-29 17:50:00,2,3463,71,2.43,2,2,0,2,2374,4551,604,3284,71,71,0,71,1.80,3.20,0.57,2.20
2017-04-29 18:00:00,2,2250,71,3.65,2,2,0,2,2060,2888,223,2198,71,71,0,71,2.50,4.45,0.67,3.75
2017-04-29 18:10:00,2,2132,71,4.16,2,2,0,2,1816,2394,169,2108,71,71,0,71,3.25,5.45,0.67,4.00
2017-04-29 18:20:00,2,2444,71,3.17,2,2,0,2,2082,3315,357,2347,71,71,0,71,1.90,4.45,0.81,3.35
2017-04-29 18:30:00,2,3486,71,1.73,2,2,0,2,2505,5028,680,3410,71,71,0,71,0.90,2.25,0.35,1.73
2017-04-29 18:40:00,2,4575,71,1.11,2,2,0,2,4136,5391,435,4422,71,71,0,71,0.75,1.55,0.24,1.02
2017-04-29 18:50:00,2,2923,71,1.62,2,2,0,2,2356,3662,409,2913,71,71,0,71,0.80,2.40,0.52,1.52
2017-04-29 19:00:00,2,2775,71,1.77,2,2,0,2,2183,3646,568,2700,71,71,0,71,1.15,2.40,0.40,1.88
2017-04-29 19:10:00,2,2392,71,2.35,2,2,0,2,1843,3064,359,2268,71,71,0,71,1.50,3.45,0.68,2.20
2017-04-29 19:20:00,2,3807,71,1.72,2,2,0,2,2829,4976,624,3712,71,71,0,71,0.90,2.55,0.50,1.73
2017-04-29 19:30:00,2,3673,71,1.47,2,2,0,2,2573,4631,721,3654,71,71,0,71,1.05,2.05,0.39,1.30
2017-04-29 19:40:00,2,3158,71,1.38,2,2,0,2,1624,6213,1578,2424,71,71,0,71,0.60,2.30,0.57,1.48
2017-04-29 19:50:00,2,4968,71,0.63,2,2,0,2,2367,10326,2178,4902,71,71,0,71,0.30,1.05,0.23,0.60
2017-04-29 20:00:00,2,3386,71,1.51,2,2,0,2,1102,6950,1831,2772,71,71,0,71,0.50,3.65,0.86,1.20
2017-04-29 20:10:00,2,3486,71,0.98,2,2,0,2,1260,5628,1465,3227,71,71,0,71,0.40,2.85,0.73,0.65
2017-04-29 20:20:00,2,3402,71,1.12,2,2,0,2,2013,4287,834,3743,71,71,0,71,0.50,2.65,0.60,0.98
2017-04-29 20:30:00,2,3567,71,1.04,2,2,0,2,1658,8571,1920,2988,71,71,0,71,0.20,1.85,0.46,1.00
2017-04-29 20:40:00,2,3020,71,1.21,2,2,0,2,1488,4109,904,3270,71,71,0,71,0.45,1.90,0.52,1.30
2017-04-29 20:50:00,2,3509,71,1.05,2,2,0,2,1328,6973,1830,3129,71,71,0,71,0.35,1.65,0.44,1.18
2017-04-29 21:00:00,2,2404,71,1.12,2,2,0,2,1228,4394,867,2462,71,71,0,71,0.25,2.50,0.63,0.95
2017-04-29 21:10:00,2,1760,71,1.85,2,2,0,2,971,4176,869,1644,71,71,0,71,1.05,3.30,0.60,1.80
2017-04-29 21:20:00,2,9937,71,0.45,2,2,0,2,2452,18597,5720,8329,71,71,0,71,0.00,1.10,0.39,0.38
2017-04-29 21:30:00,2,10844,71,0.36,2,2,0,2,1726,27304,8098,9941,71,71,0,71,0.05,0.90,0.27,0.25
2017-04-29 21:40:00,2,16492,71,0.13,2,2,0,2,4292,29694,6635,18134,71,71,0,71,0.00,0.45,0.12,0.10
2017-04-29 21:50:00,2,7091,71,0.43,2,2,0,2,1824,12902,3523,7109,71,71,0,71,0.05,1.00,0.25,0.38
2017-04-29 22:00:00,2,7313,71,0.27,2,2,0,2,2621,10536,2466,7821,71,71,0,71,0.10,0.55,0.12,0.25
2017-04-29 22:10:00,2,7353,71,0.27,2,2,0,2,5660,9379,1120,7268,71,71,0,71,0.05,0.50,0.14,0.25
2017-04-29 22:20:00,2,5309,71,0.61,2,2,0,2,4600,5875,497,5576,71,71,0,71,0.40,0.85,0.13,0.60
2017-04-29 22:30:00,2,4792,71,0.69,2,2,0,2,3671,6072,637,4812,71,71,0,71,0.35,1.30,0.28,0.62
2017-04-29 22:40:00,2,5998,71,0.49,2,2,0,2,2693,7770,1441,6548,71,71,0,71,0.30,0.80,0.16,0.42
2017-04-29 22:50:00,2,5380,71,0.46,2,2,0,2,3442,8078,1223,5114,71,71,0,71,0.20,1.00,0.27,0.30
2017-04-29 23:00:00,2,8538,71,0.32,2,2,0,2,3184,13423,2764,8330,71,71,0,71,0.00,0.60,0.19,0.25
2017-04-29 23:10:00,2,11806,71,0.24,2,2,0,2,3182,24656,7150,9676,71,71,0,71,0.00,1.25,0.35,0.15
2017-04-29 23:20:00,2,9474,71,0.16,2,2,0,2,2606,14571,3861,11240,71,71,0,71,0.00,0.60,0.20,0.08
2017-04-29 23:30:00,2,7836,71,0.29,2,2,0,2,1857,14923,4192,6522,71,71,0,71,0.00,0.60,0.22,0.33
2017-04-29 23:40:00,2,8082,71,0.31,2,2,0,2,3606,21766,5218,5958,71,71,0,71,0.05,1.10,0.33,0.17
2017-04-29 23:50:00,2,8213,71,0.32,2,2,0,2,4410,15831,3489,7171,71,71,0,71,0.00,0.85,0.28,0.22
